BEIDOU-3 M22

Last updated on Mon Oct 13 2025 00:02:34 GMT+0000 (Coordinated Universal Time)

1 44793U 19078A 25285.01005928 -.00000044 00000+0 00000+0 0 9996 2 44793 54.1626 308.5521 0004636 24.5560 335.5038 1.86231987 40026
UTC large
Height (km)
Speed (km/s)
/
Latitude / Longitude
Inclination (degrees)
Orbital Period (minutes)
Azimuth
Elevation
Range (km)
Doppler Factor

Next 0 passes for location: London (51.5072 / 0.1276)

Sorry there are no passes over London.